Wetbulb
57.73 57.85 57.80 57.89 58.16 58.29 58.39 58.69 59.34 59.69 59.86 59.93 60.03 60.74 61.30 61.35 61.15 63.89 60.75 67.19 67.66 77.50 76.36 71.69 71.71 69.54 70.84 68.77 71.42 70.24 64.40 62.90 61.12 61.41 63.12 67.87 67.43 69.98 71.17 69.23 69.22 69.89 69.46 71.58 72.88
57.31 57.21 57.29 57.59 57.69 57.86 58.13 58.13 58.64 59.14 59.16 59.42 59.74 60.43 61.13 61.22 62.24 60.75 70.17 73.42 73.45 75.66 72.67 68.52 66.45 68.39 68.48 69.76 69.98 67.39 63.96 62.81 65.35 65.64 64.90 66.58 67.45 68.52 68.39 68.22 68.50 69.28 71.42 71.98 72.61
56.84 56.90 56.99 57.33 57.53 57.46 57.42 58.05 58.24 58.42 58.69 59.10 59.60 60.12 60.95 61.70 60.36 64.62 75.21 72.76 73.86 74.22 71.70 69.84 68.74 68.76 68.22 69.31 68.42 66.75 63.28 65.70 66.07 67.26 67.15 66.34 66.11 69.30 67.49 66.50 68.92 68.61 69.75 70.86 71.29
56.54 56.51 56.52 56.77 56.81 57.12 57.36 57.61 57.86 57.90 58.34 58.73 59.30 60.03 60.76 62.63 55.53 67.32 75.96 73.87 73.26 73.46 68.73 69.00 67.62 67.52 67.71 66.43 68.45 64.06 66.50 66.77 66.98 68.01 67.15 66.38 67.35 67.10 67.87 67.97 70.47 71.73 71.46 71.05 70.61
56.10 56.07 56.25 56.47 56.98 57.28 57.36 57.66 57.71 57.70 58.09 58.44 59.10 59.79 62.09 56.87 57.47 63.47 75.48 74.32 69.53 69.06 67.33 69.66 67.65 67.91 66.06 66.74 66.91 65.14 65.82 66.84 68.32 67.71 67.98 68.17 66.61 66.33 67.63 69.88 71.62 72.57 71.59 70.81 70.68
55.81 55.83 55.83 56.44 56.70 57.02 57.17 57.16 57.46 57.28 57.72 58.41 59.09 59.15 59.80 52.65 60.53 64.30 68.12 68.82 67.93 68.84 69.40 70.03 68.49 69.52 67.75 66.58 65.88 67.16 66.66 66.98 68.03 67.47 67.68 66.87 67.30 67.02 67.96 70.67 71.07 71.78 71.35 71.27 70.94
55.73 55.57 55.94 56.13 56.17 56.26 56.42 56.38 56.48 57.00 57.58 58.68 59.46 60.59 56.15 54.96 65.88 69.45 68.55 67.78 67.69 69.45 67.56 70.26 70.03 69.27 69.22 66.32 68.02 67.71 65.10 66.27 67.02 67.47 67.02 68.57 65.00 65.73 69.60 70.79 70.66 71.27 71.82 71.52 71.46
56.09 55.65 55.54 55.58 55.49 55.77 55.76 55.47 55.86 56.84 58.15 59.70 60.36 60.90 53.16 58.65 60.11 61.63 66.45 66.69 67.78 68.46 68.16 70.23 72.87 70.95 68.82 68.54 66.84 65.43 65.15 61.54 65.63 66.38 65.48 66.86 61.17 66.80 69.95 70.12 69.76 70.61 71.14 71.34 71.53
55.70 55.27 55.45 55.18 55.11 55.09 54.67 54.97 56.17 57.92 60.81 60.41 61.42 59.80 52.54 59.34 55.57 59.27 63.77 64.68 65.69 67.68 70.60 71.51 70.93 68.49 68.43 64.09 60.33 63.78 59.84 60.99 62.61 65.63 64.99 64.89 62.50 66.72 69.91 69.93 69.31 69.90 70.49 70.88 71.07
55.64 55.09 54.86 54.89 54.72 54.51 54.34 55.34 57.76 57.48 61.72 63.06 61.99 54.67 54.57 54.17 58.13 60.10 61.28 61.24 61.56 66.04 68.29 67.55 66.76 65.44 65.87 62.17 52.66 58.49 59.60 61.16 61.15 64.33 64.61 63.37 63.77 66.58 68.52 68.84 68.78 68.64 69.84 70.41 70.41
55.21 55.18 55.22 54.60 54.43 53.99 54.55 58.35 55.92 56.93 58.50 54.48 54.39 53.27 55.14 56.80 60.70 61.81 60.30 59.34 62.99 64.73 62.68 65.81 62.51 60.70 62.59 64.04 61.98 61.34 60.86 60.34 62.82 65.44 64.22 62.94 63.66 65.68 67.79 67.97 67.90 67.74 68.69 69.54 69.77
54.69 54.81 54.73 54.49 54.05 54.07 55.45 55.06 54.80 54.65 51.56 56.51 56.39 55.26 56.09 56.98 54.75 60.01 62.52 59.56 60.35 59.29 62.00 62.29 59.26 63.18 63.17 62.43 62.43 62.07 58.69 60.67 63.18 64.33 64.26 63.05 62.59 65.81 67.14 67.24 67.99 67.65 67.40 68.19 69.22
55.10 54.67 54.60 54.33 53.54 54.55 55.02 54.48 58.08 56.58 52.05 53.17 55.38 54.95 55.48 55.93 54.71 57.41 61.07 61.13 59.98 59.26 59.44 58.90 60.61 63.17 62.08 61.27 60.86 61.08 59.54 60.24 60.59 63.58 64.66 62.95 61.13 63.93 66.97 67.89 68.14 68.39 68.67 67.97 67.85
54.46 54.58 54.11 53.30 52.78 55.65 54.24 56.32 58.27 56.08 48.92 50.97 51.88 54.31 55.35 55.66 51.63 58.42 61.96 61.67 60.77 58.71 59.34 59.53 62.52 61.56 60.91 60.20 60.97 56.28 62.06 60.34 61.21 60.73 56.41 62.77 55.06 61.09 65.12 65.99 67.10 67.97 67.97 67.95 67.55
54.58 54.21 53.62 52.76 53.00 53.72 55.45 58.45 57.31 55.81 41.45 50.43 51.70 57.65 56.09 53.05 54.18 54.06 60.39 60.95 58.77 59.17 59.80 57.91 59.14 60.14 60.13 60.21 62.46 58.76 61.16 59.99 62.21 60.89 60.56 60.06 57.87 60.55 63.54 64.08 66.12 67.91 68.61 68.72 69.08
54.13 53.84 53.33 54.48 54.46 56.27 57.42 57.38 56.29 48.06 41.16 48.77 53.02 52.05 52.27 52.66 53.49 56.48 55.81 60.13 61.92 60.08 60.50 59.81 62.88 61.78 62.14 62.64 63.29 63.27 59.33 58.37 62.41 61.35 55.79 58.67 58.32 58.59 61.13 63.19 65.39 68.24 69.25 69.81 70.19
53.41 52.70 52.31 53.93 55.28 57.13 56.98 54.24 47.60 43.75 49.79 48.56 50.77 52.50 52.52 51.13 51.40 54.55 53.96 54.00 54.65 54.19 55.29 58.12 60.04 62.74 64.28 60.98 63.30 62.30 55.26 52.07 53.46 54.00 53.64 59.75 58.58 59.93 63.07 64.43 65.55 66.85 68.67 70.22 71.01
52.39 52.20 52.69 53.33 57.82 56.62 55.27 50.49 43.75 47.16 48.21 51.77 50.28 50.84 49.79 52.23 51.46 53.23 53.44 53.01 57.17 58.09 56.27 54.08 52.83 61.10 64.12 62.57 60.55 58.97 55.55 53.14 48.51 51.44 54.32 59.97 56.15 60.01 65.29 66.84 67.43 67.83 68.59 69.90 70.71
51.63 56.81 56.52 56.71 56.90 56.76 51.36 45.30 46.45 48.27 49.46 48.61 50.09 48.76 49.99 51.58 51.40 51.76 53.66 53.43 56.24 58.62 55.14 54.58 54.78 62.00 63.69 64.86 64.43 58.26 54.61 60.35 56.39 57.47 55.68 57.89 60.24 63.24 65.47 65.02 66.18 66.03 67.15 67.51 68.80
55.54 57.46 54.85 57.44 57.34 54.14 49.14 45.16 49.33 50.95 51.16 50.37 46.86 48.28 47.92 50.03 50.26 50.57 52.84 56.11 56.27 58.82 60.99 58.65 54.35 60.96 62.29 64.71 63.44 62.44 61.88 55.83 55.44 48.70 49.76 55.89 57.34 58.42 62.18 63.42 65.34 65.91 67.00 68.52 69.53
55.84 55.34 54.73 57.48 56.29 50.95 46.61 48.11 49.68 52.32 51.76 49.36 48.04 47.18 47.47 47.12 49.93 51.01 52.24 56.36 58.28 58.39 60.35 59.70 57.76 58.59 62.09 60.52 58.99 58.35 57.23 57.53 56.89 56.12 51.11 52.53 56.00 63.66 63.81 64.27 64.66 66.52 69.55 70.18 69.80
56.88 53.31 56.56 57.81 48.82 51.30 48.72 49.27 46.73 50.51 52.20 50.94 50.46 49.30 48.00 48.36 48.57 49.55 51.45 55.80 58.85 59.56 57.18 60.02 58.54 55.66 58.02 62.25 63.70 62.56 59.65 59.14 53.37 53.63 57.02 56.89 57.73 63.63 64.55 65.11 65.77 67.97 70.21 70.88 70.66
52.88 55.82 58.36 55.87 48.56 48.68 50.57 50.53 49.90 49.52 50.02 50.30 49.52 49.89 50.36 48.94 48.08 50.63 51.12 55.41 56.63 58.64 58.49 59.76 56.90 53.39 55.78 59.18 61.83 60.44 61.18 59.21 58.36 58.32 52.29 54.67 55.76 64.40 64.66 64.55 65.49 67.47 70.26 71.25 71.21
52.96 51.85 55.32 55.30 54.80 50.43 49.35 49.67 49.69 53.15 51.47 51.38 50.68 51.71 50.68 49.25 51.04 49.78 51.11 52.31 54.77 57.97 62.59 61.97 57.97 56.10 53.44 55.99 58.74 57.30 59.25 60.38 58.22 54.75 56.78 57.48 58.09 61.17 62.74 63.72 64.55 68.64 70.82 71.06 70.92
53.92 50.43 50.27 49.98 51.78 50.02 50.40 50.41 49.57 49.60 53.33 54.16 52.29 51.72 50.73 49.17 49.73 49.41 51.15 52.72 54.12 60.24 57.17 58.55 55.64 57.37 57.62 57.06 57.62 58.73 58.36 59.55 58.55 57.37 55.29 57.80 58.49 61.75 63.80 64.93 65.05 66.46 69.88 69.75 69.91
49.76 48.81 51.61 50.42 50.70 48.95 46.46 49.62 49.15 50.35 50.80 51.45 51.08 51.39 52.44 50.75 51.10 50.62 51.48 53.44 52.78 55.40 57.08 57.84 54.80 56.53 54.70 57.16 56.94 55.57 57.49 58.29 59.47 59.84 59.72 59.70 59.52 63.89 64.87 65.97 65.72 66.15 66.80 67.89 68.79
52.07 53.88 47.59 49.05 49.61 48.72 48.64 48.47 48.78 49.97 52.21 52.35 51.49 51.09 51.68 53.05 54.65 55.48 55.86 55.69 55.48 54.30 54.88 55.55 54.43 54.10 51.58 55.60 55.41 53.12 56.31 57.06 57.92 59.50 60.05 57.64 60.26 63.46 63.36 65.26 66.14 66.48 67.08 69.15 68.66
MSLP
1016.28 1015.97 1015.64 1015.22 1014.81 1014.41 1014.01 1013.62 1013.22 1012.76 1012.27 1011.72 1011.28 1010.77 1010.19 1009.77 1008.93 1008.37 1006.00 1004.59 1005.14 1006.01 1006.26 1005.90 1006.37 1006.25 1006.46 1005.92 1005.63 1005.19 1002.95 1000.55 999.99 999.94 1000.18 1000.75 1000.72 1001.46 1002.05 1002.87 1003.36 1004.23 1004.56 1005.67 1008.03
1016.38 1015.99 1015.65 1015.15 1014.74 1014.38 1013.97 1013.51 1013.08 1012.72 1012.21 1011.64 1011.11 1010.62 1010.01 1009.56 1007.85 1005.49 1004.17 1004.58 1004.93 1005.61 1005.57 1005.29 1005.31 1005.62 1005.56 1004.99 1004.84 1004.08 1001.97 1000.41 1000.54 1000.49 1000.18 1000.52 1000.53 1001.23 1001.74 1002.35 1003.49 1004.57 1005.63 1007.06 1008.05
1016.37 1015.96 1015.57 1015.09 1014.65 1014.29 1013.90 1013.36 1012.92 1012.49 1012.06 1011.57 1011.03 1010.39 1009.79 1009.28 1006.40 1002.95 1003.89 1004.42 1004.80 1005.11 1004.43 1004.49 1004.75 1004.94 1004.66 1004.37 1004.03 1003.29 1001.66 1000.71 1000.69 1000.77 1000.65 1000.45 1000.58 1000.82 1001.02 1001.61 1002.35 1003.87 1005.58 1007.01 1007.84
1016.28 1015.89 1015.48 1015.03 1014.56 1014.14 1013.70 1013.21 1012.75 1012.34 1011.86 1011.36 1010.87 1010.26 1009.54 1008.11 1004.43 1002.99 1003.75 1004.17 1004.66 1004.48 1003.69 1003.75 1004.22 1004.06 1003.71 1003.53 1003.07 1002.77 1001.53 1001.12 1000.55 1000.79 1000.73 1000.40 1000.10 1000.55 1000.77 1000.96 1001.81 1003.46 1005.29 1006.49 1007.30
1016.19 1015.75 1015.38 1014.97 1014.52 1014.00 1013.45 1012.91 1012.49 1012.10 1011.62 1011.16 1010.77 1010.26 1008.55 1006.22 1003.27 1002.67 1003.46 1003.94 1004.19 1004.13 1003.11 1003.22 1003.31 1003.07 1002.67 1002.63 1002.78 1002.36 1001.19 1000.83 1000.52 1000.74 1000.69 1000.78 1000.37 1000.33 1000.74 1001.52 1002.40 1003.85 1005.29 1006.17 1006.96
1016.16 1015.71 1015.24 1014.77 1014.30 1013.81 1013.28 1012.75 1012.22 1011.70 1011.13 1010.75 1010.55 1010.32 1008.23 1004.72 1002.67 1002.56 1002.83 1003.24 1002.87 1002.86 1002.36 1002.44 1002.29 1002.33 1002.54 1002.59 1002.34 1001.52 1001.12 1000.57 1000.28 1000.09 1000.44 1000.34 1000.09 1000.59 1000.94 1002.01 1002.67 1004.04 1005.03 1005.91 1006.46
1016.08 1015.63 1015.09 1014.56 1014.07 1013.46 1012.91 1012.49 1011.92 1011.26 1010.64 1010.26 1010.13 1009.56 1006.84 1003.20 1002.64 1002.39 1002.51 1002.33 1002.25 1002.05 1001.81 1001.94 1001.96 1002.31 1001.80 1002.15 1002.45 1002.05 1001.05 999.87 999.71 999.60 999.65 999.91 999.95 1000.14 1001.19 1002.01 1002.95 1003.87 1004.86 1005.68 1006.23
1015.91 1015.47 1014.99 1014.43 1013.89 1013.23 1012.58 1011.99 1011.31 1010.64 1010.03 1009.69 1009.68 1008.64 1004.56 1002.35 1002.62 1002.46 1002.23 1001.99 1002.14 1002.00 1001.79 1001.87 1002.11 1001.95 1002.29 1002.78 1002.27 1001.38 1000.69 998.95 998.81 999.07 999.42 999.48 998.77 1000.21 1001.35 1001.81 1002.67 1003.59 1004.59 1005.47 1006.03
1015.82 1015.33 1014.83 1014.32 1013.76 1013.06 1012.24 1011.43 1010.66 1009.99 1009.36 1009.35 1008.85 1007.05 1002.97 1002.82 1002.35 1001.59 1001.52 1001.29 1001.59 1001.89 1001.87 1002.15 1001.99 1001.71 1002.39 1002.19 1002.12 1000.86 999.26 998.62 998.52 998.88 998.82 999.11 998.72 1000.24 1001.11 1001.45 1002.28 1003.35 1004.27 1005.06 1005.79
1015.61 1015.11 1014.63 1014.09 1013.49 1012.83 1011.96 1010.58 1009.88 1009.81 1009.29 1008.60 1007.43 1006.13 1002.28 1000.85 1000.58 1000.85 1000.95 1001.28 1001.19 1001.43 1001.74 1001.79 1001.63 1001.36 1001.50 1001.77 1002.11 1000.35 999.06 999.01 998.33 998.51 998.46 998.39 998.83 1000.00 1000.66 1000.98 1001.75 1002.73 1003.76 1004.47 1005.00
1015.40 1014.85 1014.32 1013.80 1013.19 1012.63 1011.68 1009.09 1009.34 1008.25 1007.00 1004.23 1002.91 1001.68 1000.65 1000.39 1000.84 1000.57 1000.76 1000.93 1000.71 1000.91 1000.41 1000.84 1000.63 1000.20 1000.43 1001.35 1001.50 1000.56 999.53 998.98 998.85 998.62 998.46 997.69 998.20 999.35 1000.09 1000.45 1001.12 1001.97 1002.91 1003.60 1004.14
1015.09 1014.53 1013.96 1013.34 1012.68 1012.21 1011.58 1008.62 1007.52 1007.57 1004.84 1003.05 1002.39 1001.57 1000.97 1001.02 999.95 999.89 1000.31 999.86 999.93 999.60 999.86 1000.27 999.70 999.67 1000.85 1001.33 1001.24 1000.67 1000.42 999.21 998.91 998.67 998.30 997.44 997.62 998.33 999.35 999.79 1000.36 1001.17 1001.96 1002.56 1003.29
1014.81 1014.27 1013.66 1012.87 1012.08 1011.31 1009.65 1008.08 1007.74 1007.24 1004.63 1001.10 1000.58 1000.34 1000.27 1000.67 999.39 998.88 999.60 998.83 998.81 998.98 998.82 998.91 998.73 999.65 1000.79 1000.96 1001.06 1000.81 1000.41 1000.27 999.61 998.75 998.01 997.36 997.00 997.51 998.59 999.13 999.62 1000.32 1001.06 1001.64 1002.15
1014.57 1014.03 1013.45 1012.56 1011.69 1010.14 1008.17 1007.83 1007.76 1007.48 1003.98 999.91 999.69 998.91 999.41 999.55 998.81 998.53 998.72 998.33 998.22 997.78 998.21 998.55 998.45 999.63 1000.12 1000.37 1000.97 1001.55 1001.70 1001.62 1000.31 998.84 996.71 996.96 995.67 995.96 996.81 998.07 998.54 999.13 999.77 1000.43 1001.09
1014.09 1013.63 1013.36 1013.12 1011.65 1009.35 1008.14 1007.87 1007.45 1006.77 1002.06 998.56 998.59 998.81 998.19 998.08 996.76 997.46 998.20 998.05 997.13 997.22 997.77 997.75 998.21 998.89 999.32 999.81 1000.58 1001.69 1002.73 1002.60 1000.86 998.95 996.61 996.58 995.53 993.99 995.49 996.27 997.01 997.65 998.30 999.11 999.98
1013.44 1012.97 1012.77 1011.55 1011.05 1009.04 1008.66 1008.08 1006.98 1004.39 999.69 997.70 997.79 997.79 997.75 997.59 996.51 996.17 997.46 997.87 997.39 997.01 997.26 997.28 998.19 998.49 998.79 999.85 1000.67 1002.12 1003.31 1003.72 1001.54 999.09 996.97 995.44 995.44 993.70 994.11 994.86 995.21 996.05 996.83 997.64 998.49
1012.33 1011.80 1011.95 1011.12 1008.59 1008.84 1008.49 1007.10 1004.41 1000.84 998.54 997.05 996.53 996.73 996.28 996.27 996.29 996.24 996.40 996.87 996.33 996.19 996.39 996.98 997.51 998.19 998.95 1000.29 1001.44 1002.26 1004.56 1003.95 1000.75 998.64 995.94 995.08 994.93 993.53 993.23 993.69 993.98 994.58 995.43 996.35 997.13
1011.29 1010.65 1010.56 1010.55 1009.21 1009.36 1008.08 1005.35 1001.50 998.79 997.57 997.27 996.81 996.35 995.80 995.44 995.61 995.51 995.48 995.52 995.85 995.41 995.10 995.64 996.49 997.79 998.75 999.35 1000.59 1001.77 1003.98 1003.25 1000.57 997.72 995.76 995.98 994.64 993.47 993.64 993.63 994.00 994.21 994.19 995.40 996.13
1010.62 1009.43 1008.91 1009.24 1009.21 1008.88 1006.78 1003.18 999.92 998.46 998.13 997.35 996.58 995.82 995.24 995.21 995.01 994.87 994.35 994.30 994.54 994.59 994.45 994.62 995.47 996.76 998.54 999.27 1000.25 1002.69 1002.98 1002.19 1001.78 998.47 996.08 994.88 994.61 993.93 993.55 993.67 993.79 994.26 994.81 995.50 995.64
1009.80 1008.50 1008.08 1008.80 1008.89 1007.97 1005.34 1001.64 999.60 999.40 998.66 997.65 996.47 996.23 995.05 994.74 994.71 994.08 993.81 993.43 993.47 993.98 994.12 994.09 994.85 996.62 998.61 999.47 1000.85 1000.64 1001.68 1002.43 1001.27 999.05 996.81 994.82 994.24 992.85 993.09 993.38 993.69 994.23 994.81 995.22 995.60
1009.14 1006.89 1008.77 1008.70 1008.40 1006.32 1003.20 1001.15 999.96 999.59 999.41 998.25 997.33 996.70 996.24 995.53 994.65 993.47 992.85 992.71 992.79 993.17 993.95 993.87 994.51 995.86 998.08 998.09 998.70 1000.97 1001.09 1001.59 1001.60 999.55 996.90 994.91 993.67 993.21 993.34 994.01 994.01 994.59 995.48 995.84 995.89
1008.33 1006.03 1007.91 1008.17 1006.37 1004.05 1002.19 1001.27 1001.20 999.78 999.39 998.75 998.33 997.56 996.98 996.35 995.21 994.09 992.81 992.33 992.49 992.50 992.99 993.42 993.55 994.21 995.98 996.63 997.37 998.33 998.99 999.52 1000.71 998.22 996.73 994.94 993.59 993.90 994.12 993.87 994.37 995.20 996.20 996.77 996.50
1008.18 1006.87 1007.37 1007.23 1004.27 1002.80 1001.94 1001.45 1000.81 999.84 999.10 998.69 998.16 997.85 997.47 996.79 996.02 994.88 993.95 992.92 992.98 992.30 992.49 993.11 993.09 992.95 994.09 996.40 997.13 996.79 997.59 998.85 998.75 998.80 997.87 995.55 994.21 993.69 994.32 994.39 994.51 995.26 996.41 997.15 997.88
1008.89 1006.03 1005.84 1005.85 1005.11 1003.69 1002.49 1001.17 1000.46 1000.19 999.69 999.11 998.47 998.01 997.76 997.07 996.57 995.56 994.36 993.93 993.50 992.75 992.82 992.81 992.63 992.45 992.03 993.35 994.89 996.12 996.53 997.23 997.51 996.78 995.44 994.50 993.90 993.91 994.04 994.11 994.69 995.62 996.59 997.58 998.38
1009.25 1007.83 1008.01 1005.23 1004.47 1004.38 1003.41 1002.17 1001.08 1000.28 1000.02 999.81 998.76 998.31 997.71 997.09 996.50 995.66 994.99 994.22 993.56 993.38 993.28 992.69 992.08 992.29 992.26 992.45 992.86 993.61 994.63 995.12 995.35 995.67 994.90 993.82 993.35 992.89 993.36 994.21 994.69 995.05 996.46 997.63 998.72
1010.87 1010.24 1008.83 1007.08 1005.91 1004.93 1003.65 1002.47 1001.97 1001.42 1001.15 999.69 999.66 999.22 998.85 998.07 997.02 995.91 995.79 995.00 993.43 993.65 992.89 992.39 992.02 992.41 992.03 992.18 992.50 992.32 992.97 993.16 993.64 993.98 993.85 993.29 992.55 992.18 993.03 994.08 994.57 994.97 996.19 997.70 998.99
1012.98 1012.15 1011.75 1007.53 1005.91 1005.04 1003.65 1003.61 1003.05 1002.97 1001.65 1001.35 1001.14 1000.59 999.40 998.69 998.73 998.16 997.16 996.34 995.56 994.89 993.12 992.29 991.96 992.13 991.66 991.89 992.03 991.27 990.94 991.70 991.85 992.01 992.27 992.03 992.09 992.44 992.78 993.37 994.20 995.01 995.87 997.40 999.18
Wind_Speed
17 17 17 17 17 18 18 18 18 17 17 18 17 17 16 15 18 7 10 3 10 23 17 16 16 12 14 8 6 6 6 3 5 2 7 9 9 7 5 11 2 4 2 19 22
17 17 17 17 18 18 18 18 18 17 18 18 18 17 16 15 10 13 6 12 26 23 25 20 17 15 8 7 5 7 8 2 4 4 3 6 8 10 9 11 8 11 15 23 25
17 17 18 18 18 18 18 19 19 19 18 18 18 18 17 17 9 7 6 15 24 26 17 17 16 15 12 6 7 3 9 2 2 0 3 3 8 11 10 10 10 15 22 24 25
18 18 18 18 18 19 19 19 19 20 19 19 18 19 19 7 5 8 7 15 22 20 14 14 16 15 11 10 8 9 12 9 2 1 6 6 4 9 10 5 8 17 23 24 25
18 18 19 19 19 20 20 20 21 20 19 18 17 17 10 9 12 6 7 12 21 21 20 16 15 14 11 6 7 13 12 7 8 4 8 4 9 5 11 6 10 20 22 23 22
18 18 18 19 20 21 21 21 21 21 20 18 16 14 8 13 4 4 2 15 19 19 17 15 12 12 6 7 10 6 10 11 9 9 8 11 10 7 7 8 14 19 21 21 22
18 18 19 21 21 22 22 22 23 22 21 19 12 7 11 17 3 1 9 14 14 17 12 13 7 10 6 7 6 9 12 13 12 9 6 11 9 11 11 13 16 18 18 19 20
18 19 20 21 21 22 23 24 24 24 19 12 7 7 10 2 6 12 6 11 11 10 8 8 8 5 6 1 6 10 5 12 8 7 4 11 12 10 13 15 16 17 17 18 20
18 20 20 21 22 23 25 25 26 14 8 6 9 9 10 7 10 16 16 13 10 9 7 8 9 7 6 5 3 11 9 11 9 3 5 9 12 11 12 13 14 15 17 17 18
18 19 20 21 21 23 26 27 9 8 6 7 5 7 10 6 9 7 16 14 14 13 12 12 10 11 9 7 6 16 8 6 4 3 1 7 11 12 13 13 14 15 17 18 19
18 18 19 21 22 23 18 5 7 9 10 12 5 13 4 6 4 10 14 18 15 16 15 16 13 15 15 11 9 5 5 3 3 3 6 4 6 11 14 13 14 15 18 18 18
20 18 20 21 22 22 10 6 5 7 10 19 20 16 11 2 10 11 15 19 18 20 18 11 17 15 4 7 13 14 8 5 6 1 7 7 6 10 14 14 14 15 17 18 19
19 19 19 20 24 9 6 8 2 8 9 9 17 18 17 15 11 17 21 24 23 23 20 19 12 14 11 12 11 13 8 2 11 8 10 6 11 11 12 13 15 15 15 16 19
20 18 17 21 11 6 5 4 2 6 8 11 10 10 13 13 16 16 20 19 18 25 20 21 13 8 16 15 11 8 3 7 14 8 12 11 11 17 16 15 16 17 18 18 19
19 17 13 7 13 6 6 2 6 6 8 9 9 6 5 18 9 25 18 20 20 20 20 18 18 17 12 14 14 11 7 12 17 10 10 12 12 13 17 14 16 19 20 20 21
21 18 13 9 7 10 8 8 5 8 9 7 8 11 12 19 15 18 25 20 18 20 17 20 10 15 16 4 1 14 7 13 19 13 13 16 15 13 16 16 17 19 20 22 22
24 20 10 5 0 2 6 7 8 11 5 8 6 9 14 12 21 16 26 25 20 21 19 21 15 11 6 14 9 11 10 6 7 9 9 17 11 15 8 12 13 19 20 22 22
27 19 5 9 6 10 6 9 12 5 14 2 3 5 10 11 21 21 25 25 27 24 15 18 21 17 13 14 12 18 18 11 5 11 12 7 9 11 12 11 11 10 14 16 21
22 3 3 4 7 4 7 13 8 4 2 4 8 10 8 11 6 22 24 26 28 25 22 19 19 24 17 9 15 10 11 17 14 12 7 11 12 6 10 8 10 13 10 11 14
6 3 7 2 7 6 9 15 11 4 6 4 8 3 2 8 12 22 23 24 29 28 21 12 16 17 9 12 8 10 12 12 5 8 9 7 9 8 12 12 9 10 9 7 10
6 4 6 8 6 6 11 15 14 9 6 5 1 3 2 1 8 15 18 15 26 26 24 21 16 17 15 17 17 7 10 8 4 16 8 11 9 8 3 1 4 4 1 2 4
5 2 6 3 7 4 11 6 3 14 6 7 6 7 8 7 7 7 18 19 18 23 26 24 13 15 19 19 15 19 15 16 9 13 9 13 2 8 0 1 4 6 4 4 4
6 2 4 5 6 6 7 10 11 13 13 14 11 5 4 6 5 4 4 5 6 23 25 22 19 15 15 10 11 21 18 15 21 22 14 13 9 5 1 2 2 3 5 6 4
6 3 5 6 3 8 4 9 8 6 11 10 13 10 13 13 12 8 6 1 5 16 6 21 18 23 15 17 17 16 18 24 21 16 17 13 14 8 12 11 5 5 7 7 6
4 5 4 3 4 8 8 5 7 5 3 5 8 14 12 12 11 15 13 10 12 6 8 19 21 23 21 18 17 22 19 23 24 24 18 17 16 15 10 7 11 6 6 7 6
7 7 6 9 7 8 4 5 6 5 4 4 8 3 5 10 12 10 5 10 4 9 11 19 19 20 23 20 22 19 20 24 25 24 23 21 18 11 3 4 8 8 7 6 8
6 2 4 3 6 6 2 4 3 5 5 7 6 9 10 7 11 13 14 15 15 10 8 10 13 11 18 20 22 24 27 25 23 23 23 22 17 10 14 10 9 9 10 12 12
Wind_Direction
349 348 345 344 343 340 338 336 334 334 330 328 326 325 321 321 298 208 248 114 172 162 160 154 174 184 185 212 222 239 250 264 61 351 105 153 162 164 107 142 143 112 72 126 148
347 344 343 341 340 337 333 332 329 329 326 326 323 323 320 323 280 259 128 118 143 170 171 170 178 175 203 221 212 250 279 58 42 55 113 151 205 165 187 155 146 114 110 136 152
344 342 341 339 337 334 329 327 325 324 322 322 321 322 318 312 276 114 72 149 163 179 174 186 173 180 224 217 203 211 275 48 124 302 212 164 209 176 208 187 169 154 143 153 158
342 340 339 336 332 329 327 324 321 319 318 319 321 318 314 262 286 83 76 155 169 196 190 187 182 200 223 217 221 248 246 265 297 215 211 220 169 193 205 96 137 146 155 159 167
340 338 335 332 329 326 324 321 317 314 314 314 315 315 300 239 254 86 138 156 169 196 190 181 188 216 238 250 213 243 263 255 256 242 226 246 208 206 199 122 140 142 159 166 172
339 335 330 328 328 323 321 319 314 312 310 308 305 304 256 257 32 290 180 170 177 194 197 199 204 226 280 239 237 327 280 264 267 232 218 228 220 194 137 157 143 156 166 173 175
336 332 329 327 326 323 320 317 311 308 305 300 286 255 254 246 41 93 176 175 188 202 198 209 223 216 178 220 238 275 266 225 225 217 220 218 177 201 138 161 155 161 169 175 177
333 332 329 327 325 321 317 314 310 306 298 283 227 216 258 170 264 234 183 171 187 205 250 192 199 245 263 341 236 258 265 219 141 200 150 217 120 134 162 164 161 162 170 177 178
332 330 328 326 324 320 316 311 306 298 306 171 190 240 261 114 214 220 212 179 165 189 193 170 211 236 188 234 346 247 215 228 139 117 160 231 116 144 172 166 161 168 171 179 180
332 330 328 325 322 320 319 299 296 272 213 227 266 228 224 220 187 200 202 217 197 177 170 188 201 220 207 173 210 236 196 183 176 95 203 187 112 153 173 178 167 173 176 183 185
330 328 324 324 322 320 320 274 213 189 213 227 196 230 78 194 186 193 179 189 198 193 201 198 209 216 217 207 223 287 293 219 195 307 264 151 163 174 177 187 175 177 183 188 191
329 326 325 322 318 315 278 257 21 349 286 227 245 246 262 315 201 186 184 182 193 199 210 177 225 225 118 193 257 247 254 232 274 26 245 193 200 166 180 192 182 187 185 191 189
325 323 321 319 313 279 282 268 348 324 259 245 222 227 224 214 221 184 195 203 193 206 200 216 215 213 198 202 240 243 235 225 314 297 247 241 230 170 176 196 188 188 187 193 192
325 321 325 324 279 344 258 155 278 309 268 190 197 223 201 210 220 221 203 202 206 211 199 225 198 189 205 228 219 234 167 320 294 253 212 208 213 199 174 197 196 193 189 192 191
320 315 317 332 309 255 39 150 307 209 266 106 141 105 173 202 176 193 197 211 220 206 210 207 222 199 212 213 214 176 68 339 295 256 267 189 255 177 192 195 198 200 197 198 193
316 308 302 272 222 264 305 282 225 222 240 155 139 178 171 208 217 172 192 220 229 213 205 225 202 216 220 187 269 132 83 332 265 249 223 211 217 220 181 209 206 197 200 200 196
318 304 268 249 124 118 302 221 209 241 108 164 178 183 208 175 206 186 186 197 203 205 200 217 182 204 213 114 149 147 79 285 207 204 222 204 200 251 157 199 215 190 197 199 200
322 314 142 207 226 259 254 214 232 202 226 70 263 223 234 187 207 197 191 196 210 209 201 205 197 173 198 183 182 159 144 244 204 203 202 135 226 221 236 243 196 233 197 189 201
310 155 154 147 230 249 239 214 221 246 350 267 265 251 185 203 243 204 208 204 203 210 225 201 218 175 178 159 155 156 186 240 263 275 291 166 229 277 219 212 194 200 194 208 220
306 253 40 356 182 212 230 240 234 314 310 260 251 310 199 193 209 198 198 207 205 211 221 200 212 172 142 141 62 188 149 221 227 272 225 176 238 237 181 197 198 188 204 226 230
253 233 64 114 197 216 230 235 250 246 284 298 205 279 321 340 271 204 214 204 212 198 219 222 223 153 165 206 170 148 165 190 302 278 270 237 201 204 180 66 173 154 118 247 235
286 259 136 254 225 213 241 251 350 265 211 265 281 277 287 308 281 261 226 209 209 206 206 219 207 185 202 201 219 205 188 182 220 249 249 294 70 131 288 154 94 104 133 142 79
321 346 146 238 270 208 219 253 248 266 251 249 249 241 299 292 303 270 239 252 278 214 205 207 231 218 159 165 208 220 193 194 192 252 270 253 236 151 148 286 352 125 127 102 130
290 265 152 221 288 296 312 248 260 209 260 270 259 262 258 255 257 275 285 242 208 236 160 222 216 235 211 208 185 203 216 194 208 220 249 239 257 249 256 262 193 163 146 147 149
346 50 18 300 176 312 287 290 273 271 241 250 239 243 264 252 241 251 254 262 233 201 229 226 222 238 230 256 207 195 205 210 209 224 243 253 239 228 237 243 259 187 170 169 161
341 341 340 286 275 273 224 234 270 301 279 223 259 51 255 258 257 333 4 270 4 185 208 210 222 235 245 229 245 231 224 220 214 224 237 250 263 273 307 266 222 230 219 203 177
6 330 307 283 288 267 293 320 312 328 242 265 320 307 272 340 345 307 292 285 281 295 282 198 223 211 233 228 238 238 223 230 235 227 225 239 247 252 259 223 237 235 239 198 175